sat.trackr.live / text

‹ back to catalog

STARLINK-36093

NORAD 67015 · 2025-293N

PAYLOAD ACTIVE UNKNOWN

§ Identity

Operator
Country
US
Launch date
2025-12-10
Launch site
AFWTR
Launch vehicle
Mass (kg)
RCS (m²)

Purposes: comms

External: N2YO · Heavens-Above · Gunter

§ Orbital elements

Epoch: 2026-05-25T00:44:21.157152Z

Period
96.11 min
Inclination
70.0009°
Eccentricity
0.0003390
Mean motion
14.98335946 rev/d
Perigee alt
569.7 km
Apogee alt
574.4 km
Semi-major
6,950.2 km
B*
1.7564e-4
RAAN
261.9439°
Arg perigee
270.9791°
Mean anomaly
89.0980°
Rev number
2,632

§ Raw data

STARLINK-360931 67015U 25293N   26145.03080043  .00002004  00000+0  17564-3 0  99972 67015  70.0009 261.9439 0003390 270.9791  89.0980 14.98335946 26320

JSON: /api/v1/satellites/67015 · /tle

For live sub-satellite position, see the globe view (requires WebGL).

§ Visibility from observer

Set your observer location to see the next 7 days of passes ≥ 10°. The values pass through the URL so the page stays shareable.

No JS? Fill the form by hand. The geolocation button needs JavaScript.